Location: ????????
(55.3155°N, 39.2900°E)
Time: 11:01:14
(UTC+00:00)

S3M - Pass Details

Date: 14 April 2024
Orbit: 949 x 1003 km, 83.0° (Epoch: 27 May)

Event Time Altitude Azimuth Distance (km) Brightness Sun altitude
Rises 01:27:07 0° 348° (NNW) 3,640 7.2 -7.8°
Reaches altitude 10° 01:29:37 10° 349° (NNW) 2,694 6.6 -7.5°
Maximum altitude 01:35:47 89° 68° (ENE) 968 4.1 -6.7°
Drops below altitude 10° 01:42:00 10° 171° (S) 2,704 6.2 -5.9°
Sets 01:44:30 0° 171° (S) 3,654 6.8 -5.6°
